This demonstration page uses our WeatherBlox Daily Observations layout. Learn more.

Left ArrowRight Arrow

Hourly Observations for March 24, 2021

Temp ( °F °C ) Dew Point ( °F °C ) Humidity (%) Winds ( mph kmh ) Pressure ( in mb ) Visibility ( mi km ) Precip ( " mm )
12:27 am 00:27 Cloudy 47 8.3 42 5.6 83 83 NW 18 30 29.62 1003 10 16 N/A
12:54 am 00:54 Cloudy 46 7.8 41 5 83 83 NNW 21 33 29.62 1003 10 16 N/A
1:54 am 01:54 Cloudy 46 7.8 40 4.4 79 79 NNW 18 30 29.64 1004 10 16 N/A
2:54 am 02:54 Cloudy 44 6.7 39 3.9 83 83 NNW 18 30 29.66 1004 10 16 N/A
3:54 am 03:54 Cloudy 43 6.1 38 3.3 82 82 NNW 20 31 29.67 1005 10 16 N/A
4:03 am 04:03 Cloudy 43 6.1 37 2.8 80 80 NNW 21 33 29.70 1006 10 16 N/A
4:54 am 04:54 Cloudy 42 5.6 36 2.2 79 79 NNW 18 30 29.70 1006 10 16 N/A
5:54 am 05:54 Cloudy 41 5 35 1.7 79 79 NNW 17 28 29.74 1007 10 16 N/A
6:54 am 06:54 Cloudy 41 5 35 1.7 79 79 NNW 15 24 29.76 1008 10 16 0.00 0.00
7:54 am 07:54 Cloudy 41 5 35 1.7 79 79 NNW 17 28 29.78 1008 10 16 N/A
8:54 am 08:54 Cloudy 42 5.6 36 2.2 79 79 NNW 18 30 29.82 1010 10 16 N/A
9:13 am 09:13 Cloudy 42 5.6 35 1.7 76 76 NNW 18 30 29.85 1011 10 16 N/A
9:54 am 09:54 Cloudy 42 5.6 35 1.7 76 76 NNW 18 30 29.85 1011 10 16 N/A
10:54 am 10:54 Cloudy 42 5.6 34 1.1 73 73 NNW 23 37 29.87 1012 10 16 N/A
11:54 am 11:54 Cloudy 44 6.7 34 1.1 68 68 NNW 20 31 29.88 1012 10 16 N/A
12:29 pm 12:29 Cloudy 45 7.2 35 1.7 68 68 NNW 20 31 29.88 1012 10 16 N/A
12:54 pm 12:54 Cloudy 47 8.3 35 1.7 63 63 NNW 22 35 29.85 1011 10 16 N/A
1:54 pm 13:54 Cloudy 48 8.9 35 1.7 61 61 NW 18 30 29.89 1012 10 16 N/A
2:54 pm 14:54 Cloudy 49 9.4 35 1.7 59 59 NNW 17 28 29.90 1013 10 16 N/A
3:29 pm 15:29 Mostly Cloudy 50 10 35 1.7 57 57 N 14 22 29.91 1013 10 16 N/A
3:54 pm 15:54 Mostly Cloudy 51 10.6 36 2.2 56 56 N 16 26 29.90 1013 10 16 N/A
4:54 pm 16:54 Mostly Cloudy 51 10.6 34 1.1 52 52 N 15 24 29.89 1012 10 16 N/A
5:54 pm 17:54 Mostly Cloudy 49 9.4 34 1.1 56 56 N 12 19 29.89 1012 10 16 N/A
6:54 pm 18:54 Sunny 48 8.9 33 0.6 56 56 N 12 19 29.89 1012 10 16 N/A
7:54 pm 19:54 Mostly Clear 45 7.2 34 1.1 66 66 N 8 13 29.92 1013 10 16 N/A
8:54 pm 20:54 Clear 44 6.7 35 1.7 71 71 ENE 9 15 29.94 1014 10 16 N/A
9:54 pm 21:54 Mostly Clear 44 6.7 35 1.7 71 71 E 7 11 29.95 1014 10 16 N/A
10:54 pm 22:54 Mostly Cloudy 43 6.1 35 1.7 74 74 SSE 5 7 29.96 1015 10 16 N/A
11:54 pm 23:54 Cloudy 43 6.1 34 1.1 71 71 E 3 6 29.92 1013 10 16 N/A

Powered by AerisWeather